Tracking 19847 objects as of 16-Sep-2019
HD Live streaming from Space Station
objects crossing your sky now

CZ-2C DEB

Track CZ-2C DEB now!
10-day predictions


NORAD ID: 43534
Int'l Code: 2018-056F
Perigee: 594.0 km
Apogee: 628.9 km
Inclination: 98.0 °
Period: 96.8 minutes
Semi major axis: 6982 km
RCS: Unknown
Launch date: July 9, 2018
Source: People's Republic of China (PRC)
Launch site: Jiuquan Satellite Launch Center, China (JSC)

Note: This is SATELLITE DEBRIS
aabbcc
Your satellite tracking list
Your tracking list is empty




NASA's NSSDC Master Catalog

Two Line Element Set (TLE):
1 43534U 18056F   19258.85603571 +.00000200 +00000-0 +28098-4 0  9992
2 43534 098.0145 339.4707 0024936 301.9454 057.9337 14.87962693064482
Source of the keplerian elements: AFSPC